Regional Weather Roundup
Issued by NWS Charleston, SC

Current Version | Previous Version | Graphics & Text | Print | Product List | Glossary On
Versions: 1 2 3 4 5 6 7 8 9 10 11 12 13 14 15 16 17 18 19 20 21 22 23 24 25 26 27 28 29 30 31 32 33 34 35 36 37 38 39 40 41 42 43 44 45 46 47 48 49 50
731
ASUS42 KCHS 210927
RWRCHS

REGIONAL WEATHER ROUNDUP
NATIONAL WEATHER SERVICE CHARLESTON SC
500 AM EDT SAT OCT 21 2017

NOTE: "FAIR" INDICATES FEW OR NO CLOUDS BELOW 12,000 FEET WITH NO
SIGNIFICANT WEATHER AND/OR OBSTRUCTIONS TO VISIBILITY.

NOT ALL STATIONS ARE QUALITY CONTROLLED. USE DATA WITH CAUTION...
ESPECIALLY DEWPOINT OBSERVATIONS.

SCZ027-030-031-034>040-042>050-211000-
...SOUTHEAST SOUTH CAROLINA...

CITY           SKY/WX    TMP DP  RH WIND       PRES   REMARKS
N CHARLESTON   PTCLDY    54  54 100 N3        30.22R
WATERFRONT PRK NOT AVBL
JOHNS ISLAND   FAIR      57  55  94 CALM      30.22R
PINOPOLIS        N/A    N/A N/A N/A CALM      30.13S
MONCKS CORNER  FAIR      52  50  93 CALM      30.23R
SUMMERVILLE    FAIR      50  50 100 CALM      30.24R
BEAUFORT MCAS  CLEAR     58  58 100 MISG      30.21R
BEAUFORT ARPT  FAIR      61  59  94 NE3       30.21R
HILTON HEAD IS CLEAR     61  59  94 CALM      30.22R
WALTERBORO     SUNNY     46  45  93 CALM      30.24R
ALLENDALE        N/A     50  48  93 CALM        N/A

...SOUTHERN MIDLANDS AND PEE DEE...

CITY           SKY/WX    TMP DP  RH WIND       PRES   REMARKS
GEORGETOWN     FAIR      50  48  93 CALM      30.24R
KINGSTREE      FAIR      48  46  93 CALM      30.24R
ORANGEBURG     CLEAR     50  49  96 CALM      30.23S
BARNWELL         N/A     48  48 100 CALM      30.24R
AIKEN          FAIR      46  45  93 CALM      30.28R
MANNING        FOG       50  46  87 MISG      30.25R VSB<1/4
COLUMBIA       PTCLDY    50  48  93 CALM      30.24R
SUMTER         CLEAR     50  48  92 CALM      30.22R
FLORENCE       CLEAR     50  50 100 CALM      30.24R
MYRTLE BEACH   NOT AVBL
N MYRTLE BEACH CLEAR     54  54 100 N3        30.23S

$$

GAZ063-065-086>088-099>101-113>116-118-119-134>141-150-211000-
...SOUTHEAST GEORGIA...

CITY           SKY/WX    TMP DP  RH WIND       PRES   REMARKS
SAVANNAH ARPT  CLEAR     58  57  97 CALM      30.21R
HUNTER AAF     CLEAR     60  57  92 CALM      30.18R
FORT STEWART   CLEAR     59  57  94 CALM      30.18S
STATESBORO     FOG       52  52 100 CALM      30.22S VSB 1
SYLVANIA       FOG       50  50 100 CALM      30.23S VSB 3/4
CLAXTON        FAIR      52  52  99 CALM      30.22R FOG

...CSRA...CENTRAL AND FAR SOUTHEAST GEORGIA...

CITY           SKY/WX    TMP DP  RH WIND       PRES   REMARKS
THOMSON        CLEAR     44  43  95 CALM      30.30R
AUGUSTA-BUSH   PTCLDY    48  46  93 CALM      30.24R
AUGUSTA-DANIEL CLEAR     59  49  69 CALM      30.24R
SWAINSBORO     FAIR      52  52 100 CALM      30.23S
VIDALIA        CLEAR     55  55 100 CALM      30.22R
EASTMAN        FAIR      50  50 100 CALM      30.23S
HAZLEHURST     FAIR      62  59  91 CALM      30.20R
ALMA           CLEAR     61  59  93 CALM      30.19R
WAYCROSS       MOCLDY    62  59  90 CALM      30.19R
JESUP          NOT AVBL
BAXLEY         FAIR      57  55  94 CALM      30.20R
BRUNSWICK      PTCLDY    64  61  88 N5        30.18R
SAINT SIMONS   PTCLDY    69  66  90 N6        30.16S

$$

SCZ027-028-034-036>038-045-046-048>050-GAZ119-141-211000-
...LAKE AND SUPPLEMENTAL COASTAL OBSERVATIONS...

STATION/POSITION TIME  TEMP    WIND        PRES    WAVE   SWELL
                       AIR SEA DIR/SP/G            HT/PER HT/PER/DIR
                 (UTC) (F)     (DEG/KT/KT) (MB)    (FT/S) (FT/S/D)
WINYAH BAY       0845   55     320/  4     1023.0S
LAKE MURRAY      0850   56        CALM     1023.4R
ACE BASIN NERRS  0845   59        CALM     1023.0S
FORT PULASKI     0900   68 74   20/  4/  5 1023.0
SAPELO ISLAND    NOT AVBL

$$

ANZ835-935-AMZ111-154-330-350-352-354-370-450-454-472-211000-
...C-MAN AND BUOY OBSERVATIONS...

STATION/POSITION TIME  TEMP    WIND        PRES    WAVE   SWELL
                       AIR SEA DIR/SP/G            HT/PER HT/PER/DIR
                 (UTC) (F)     (DEG/KT/KT) (MB)    (FT/S) (FT/S/D)
BUOY 41004       0910   75 80   50/ 10/ 14 1022.1
BUOY 41008       0850   77 77  110/ 12/ 14 1021.4R   4/ 8   3/110/ 8
FOLLY BEACH CMAN 0900   69      20/  5/  6 1023.6R
CAPERS NEARSHORE 0908   69 73   60/  6/  8 1022.8R
FRIPP NEARSHORE  0908   74      60/  6/  8   N/A


STATION/POSITION TIME  TEMP    WIND        PRES    WAVE   SWELL
                       AIR SEA DIR/SP/G            HT/PER HT/PER/DIR
                 (UTC) (F)     (DEG/KT/KT) (MB)    (FT/S) (FT/S/D)
5E ST. MARYS GA  0900      77                N/A     4/ 5
FRYING PAN BUOY  0910   73 76   40/  6/  8 1023.4
BUOY 41025       0850   74 81   30/  8/ 12 1023.9R   3/ 8   3/100/ 8
CAPE LOOKOUT NC  0900   66     360/  7/  8 1023.9R
BUOY 41002       0850   76 80   60/ 14/ 16 1021.9R   5/ 9   3/ 90/ 9
BUOY 41010       NOT AVBL
ST AUGUSTINE FL  0900   78 77   80/ 15/ 17 1020.2R


$$




USA.gov is the U.S. government's official web portal to all federal, state and local government web resources and services.